TimeMDT,TemperatureF,Dew PointF,Humidity,Sea Level PressureIn,VisibilityMPH,Wind Direction,Wind SpeedMPH,Gust SpeedMPH,PrecipitationIn,Events,Conditions,WindDirDegrees,DateUTC
12:15 AM,42.8,39.2,87,30.27,10.0,Calm,Calm,-,N/A,,Scattered Clouds,0,2013-04-30 06:15:00
12:35 AM,42.8,39.2,87,30.27,10.0,Calm,Calm,-,N/A,,Scattered Clouds,0,2013-04-30 06:35:00
12:55 AM,41.0,39.2,93,30.27,10.0,Calm,Calm,-,N/A,,Clear,0,2013-04-30 06:55:00
1:15 AM,41.0,39.2,93,30.27,10.0,Calm,Calm,-,N/A,,Scattered Clouds,0,2013-04-30 07:15:00
1:35 AM,41.0,39.2,93,30.27,10.0,Calm,Calm,-,N/A,,Mostly Cloudy,0,2013-04-30 07:35:00
1:55 AM,41.0,39.2,93,30.28,10.0,Calm,Calm,-,N/A,,Overcast,0,2013-04-30 07:55:00
2:15 AM,41.0,39.2,93,30.28,10.0,SE,4.6,-,N/A,,Mostly Cloudy,130,2013-04-30 08:15:00
2:35 AM,41.0,39.2,93,30.29,10.0,SE,3.5,-,N/A,,Mostly Cloudy,140,2013-04-30 08:35:00
2:55 AM,41.0,39.2,93,30.28,10.0,SE,4.6,-,N/A,,Mostly Cloudy,130,2013-04-30 08:55:00
3:15 AM,41.0,39.2,93,30.28,10.0,Calm,Calm,-,N/A,,Mostly Cloudy,0,2013-04-30 09:15:00
3:35 AM,41.0,39.2,93,30.28,10.0,SE,3.5,-,N/A,,Overcast,140,2013-04-30 09:35:00
3:55 AM,41.0,39.2,93,30.29,7.0,Calm,Calm,-,N/A,,Light Drizzle,0,2013-04-30 09:55:00
4:15 AM,41.0,39.2,93,30.28,10.0,SE,4.6,-,N/A,,Mostly Cloudy,130,2013-04-30 10:15:00
4:35 AM,41.0,39.2,93,30.29,10.0,Calm,Calm,-,N/A,,Mostly Cloudy,0,2013-04-30 10:35:00
4:55 AM,41.0,39.2,93,30.29,10.0,Calm,Calm,-,N/A,,Overcast,0,2013-04-30 10:55:00
5:15 AM,41.0,39.2,93,30.29,10.0,Calm,Calm,-,N/A,,Mostly Cloudy,0,2013-04-30 11:15:00
5:35 AM,41.0,39.2,93,30.29,10.0,Calm,Calm,-,N/A,,Overcast,0,2013-04-30 11:35:00
5:55 AM,41.0,39.2,93,30.29,10.0,Calm,Calm,-,N/A,,Overcast,0,2013-04-30 11:55:00
6:15 AM,41.0,39.2,93,30.29,10.0,SE,4.6,-,N/A,,Mostly Cloudy,140,2013-04-30 12:15:00
6:35 AM,41.0,39.2,93,30.30,4.0,West,3.5,-,0.02,Rain,Light Rain,260,2013-04-30 12:35:00
6:55 AM,42.8,39.2,87,30.29,10.0,SE,3.5,-,0.02,,Mostly Cloudy,140,2013-04-30 12:55:00
7:15 AM,42.8,39.2,87,30.30,10.0,ESE,3.5,-,N/A,,Overcast,120,2013-04-30 13:15:00
7:35 AM,42.8,39.2,87,30.31,10.0,Calm,Calm,-,N/A,,Overcast,0,2013-04-30 13:35:00
7:55 AM,42.8,39.2,87,30.32,10.0,South,3.5,-,N/A,,Overcast,180,2013-04-30 13:55:00
8:15 AM,42.8,41.0,93,30.32,10.0,South,3.5,-,N/A,,Overcast,180,2013-04-30 14:15:00
8:35 AM,42.8,41.0,93,30.33,10.0,ESE,3.5,-,N/A,,Overcast,110,2013-04-30 14:35:00
8:55 AM,42.8,41.0,93,30.32,10.0,Calm,Calm,-,N/A,,Mostly Cloudy,0,2013-04-30 14:55:00
9:15 AM,42.8,41.0,93,30.34,4.0,Calm,Calm,-,0.02,Rain,Light Rain,0,2013-04-30 15:15:00
9:35 AM,44.6,41.0,87,30.33,10.0,Calm,Calm,-,0.03,,Mostly Cloudy,0,2013-04-30 15:35:00
9:55 AM,44.6,41.0,87,30.34,10.0,Calm,Calm,-,0.03,,Scattered Clouds,0,2013-04-30 15:55:00
10:15 AM,46.4,41.0,81,30.34,10.0,Calm,Calm,-,N/A,,Drizzle,0,2013-04-30 16:15:00
10:35 AM,46.4,41.0,81,30.35,10.0,Calm,Calm,-,N/A,,Mostly Cloudy,0,2013-04-30 16:35:00
10:55 AM,46.4,39.2,76,30.35,10.0,Calm,Calm,-,N/A,,Overcast,0,2013-04-30 16:55:00
11:15 AM,48.2,39.2,71,30.35,10.0,Calm,Calm,-,N/A,,Overcast,0,2013-04-30 17:15:00
11:35 AM,50.0,39.2,66,30.35,10.0,NW,8.1,-,N/A,,Scattered Clouds,310,2013-04-30 17:35:00
11:55 AM,51.8,41.0,67,30.35,10.0,WNW,8.1,-,N/A,,Scattered Clouds,300,2013-04-30 17:55:00
12:15 PM,50.0,39.2,66,30.36,10.0,NW,9.2,-,N/A,,Mostly Cloudy,310,2013-04-30 18:15:00
12:35 PM,53.6,39.2,58,30.37,10.0,WNW,16.1,-,N/A,,Mostly Cloudy,290,2013-04-30 18:35:00
12:55 PM,51.8,39.2,62,30.37,10.0,WNW,15.0,21.9,N/A,,Overcast,300,2013-04-30 18:55:00
1:15 PM,53.6,39.2,58,30.37,10.0,WNW,13.8,-,N/A,,Overcast,300,2013-04-30 19:15:00
1:35 PM,53.6,39.2,58,30.38,10.0,WNW,15.0,21.9,N/A,,Mostly Cloudy,290,2013-04-30 19:35:00
1:55 PM,53.6,41.0,62,30.38,10.0,WNW,15.0,23.0,N/A,,Scattered Clouds,290,2013-04-30 19:55:00
2:15 PM,53.6,39.2,58,30.38,10.0,WNW,18.4,21.9,N/A,,Scattered Clouds,300,2013-04-30 20:15:00
2:35 PM,53.6,39.2,58,30.39,10.0,WNW,18.4,-,N/A,,Clear,300,2013-04-30 20:35:00
2:55 PM,53.6,37.4,54,30.39,10.0,WNW,17.3,-,N/A,,Clear,300,2013-04-30 20:55:00
3:15 PM,53.6,37.4,54,30.39,10.0,WNW,18.4,24.2,N/A,,Clear,300,2013-04-30 21:15:00
3:35 PM,55.4,39.2,54,30.39,10.0,WNW,17.3,20.7,N/A,,Clear,290,2013-04-30 21:35:00
3:55 PM,53.6,37.4,54,30.39,10.0,WNW,19.6,-,N/A,,Clear,300,2013-04-30 21:55:00
4:15 PM,53.6,35.6,51,30.39,10.0,WNW,15.0,24.2,N/A,,Clear,300,2013-04-30 22:15:00
4:35 PM,53.6,37.4,54,30.40,10.0,WNW,18.4,26.5,N/A,,Clear,300,2013-04-30 22:35:00
4:55 PM,53.6,37.4,54,30.39,10.0,WNW,18.4,24.2,N/A,,Clear,300,2013-04-30 22:55:00
5:15 PM,53.6,35.6,51,30.40,10.0,WNW,19.6,25.3,N/A,,Clear,300,2013-04-30 23:15:00
5:35 PM,53.6,33.8,47,30.39,10.0,WNW,19.6,24.2,N/A,,Clear,300,2013-04-30 23:35:00
5:55 PM,53.6,33.8,47,30.40,10.0,NW,20.7,25.3,N/A,,Clear,310,2013-04-30 23:55:00
6:15 PM,51.8,35.6,54,30.41,10.0,WNW,21.9,25.3,N/A,,Clear,300,2013-05-01 00:15:00
6:35 PM,51.8,35.6,54,30.41,10.0,WNW,18.4,26.5,N/A,,Clear,300,2013-05-01 00:35:00
6:55 PM,51.8,37.4,58,30.41,10.0,NW,17.3,-,N/A,,Clear,310,2013-05-01 00:55:00
7:15 PM,51.8,35.6,54,30.42,10.0,WNW,16.1,23.0,N/A,,Clear,300,2013-05-01 01:15:00
7:35 PM,51.8,35.6,54,30.42,10.0,WNW,16.1,21.9,N/A,,Clear,300,2013-05-01 01:35:00
7:55 PM,50.0,37.4,62,30.42,10.0,NW,17.3,24.2,N/A,,Clear,310,2013-05-01 01:55:00
8:15 PM,50.0,37.4,62,30.42,10.0,NW,15.0,-,N/A,,Clear,310,2013-05-01 02:15:00
8:35 PM,50.0,37.4,62,30.42,10.0,NW,11.5,18.4,N/A,,Clear,310,2013-05-01 02:35:00
8:55 PM,48.2,35.6,62,30.43,10.0,NW,12.7,17.3,N/A,,Clear,310,2013-05-01 02:55:00
9:35 PM,46.4,33.8,62,30.44,10.0,NW,6.9,-,N/A,,Clear,320,2013-05-01 03:35:00
10:15 PM,44.6,35.6,71,30.44,10.0,NW,6.9,-,N/A,,Clear,320,2013-05-01 04:15:00
10:35 PM,44.6,35.6,71,30.45,10.0,Calm,Calm,-,N/A,,Clear,0,2013-05-01 04:35:00
10:55 PM,42.8,33.8,70,30.46,10.0,NE,4.6,-,N/A,,Clear,50,2013-05-01 04:55:00
11:15 PM,41.0,35.6,81,30.46,7.0,Calm,Calm,-,N/A,,Clear,0,2013-05-01 05:15:00
11:35 PM,41.0,35.6,81,30.47,7.0,Calm,Calm,-,N/A,,Clear,0,2013-05-01 05:35:00
11:55 PM,41.0,35.6,81,30.47,7.0,Calm,Calm,-,N/A,,Clear,0,2013-05-01 05:55:00